Weather History for PHKO - December, 2010

Change the Weather History Date:

Sunday, December 5, 2010

  Actual Average Record
Temperature  
Mean Temperature 74 °F -  
Max Temperature 80 °F 80 °F 88 °F (1983)
Min Temperature 69 °F 68 °F 66 °F (2000)
Cooling Degree Days 10    
Growing Degree Days 24 (Base 50)    
Moisture  
Dew Point 62 °F    
Average Humidity 63    
Maximum Humidity 75    
Minimum Humidity 54    
Precipitation  
Precipitation 0.00 in - - ()
Sea Level Pressure  
Sea Level Pressure 29.98 in    
Wind  
Wind Speed 4 mph (SSE)    
Max Wind Speed 12 mph    
Max Gust Speed -    
Visibility 10 miles    
Events      
Averages and records for this station are not official NWS values.
T = Trace of Precipitation, MM = Missing Value Source: NWS Daily Summary

Daily Weather History Graph

Daily Weather History Graph

Search for Another Location

Airport or City:

Trip Planner

Search our weather history database for the weather conditions in past years. The results will help you decide how hot, cold, wet, or windy it might be!

Date:

Astronomy

Dec. 05, 2010 Rise Set
Actual Time 6:45 AM HST 5:44 PM HST
Civil Twilight 6:21 AM HST 6:08 PM HST
Nautical Twilight 5:53 AM HST 6:35 PM HST
Astronomical Twilight 5:27 AM HST 7:02 PM HST
Moon 6:49 AM HST (12/5) 5:59 PM HST (12/5)
Length of Visible Light 11h 47m
Length of Day
10h 59m
New Moon, 0% of the Moon is Illuminated
Dec 5
New Moon
Dec 13
First Quarter
Dec 20
Full
Dec 27
Last Quarter
Jan 3
New

Hourly Weather History & Observations

Time (HST) Temp. Heat Index Dew Point Humidity Pressure Visibility Wind Dir Wind Speed Gust Speed Precip Events Conditions
12:53 AM 73.9 °F - 63.0 °F 68% 30.01 in 10.0 mi Calm Calm - N/A   Scattered Clouds
1:53 AM 72.0 °F - 62.1 °F 71% 29.99 in 10.0 mi ESE 3.5 mph - N/A   Clear
2:53 AM 72.0 °F - 61.0 °F 68% 29.96 in 10.0 mi East 3.5 mph - N/A   Clear
3:53 AM 69.1 °F - 61.0 °F 75% 29.96 in 10.0 mi NE 5.8 mph - N/A   Clear
4:53 AM 69.1 °F - 57.9 °F 68% 29.96 in 10.0 mi ENE 5.8 mph - N/A   Clear
5:53 AM 70.0 °F - 57.9 °F 65% 29.97 in 10.0 mi ESE 8.1 mph - N/A   Clear
6:53 AM 72.0 °F - 59.0 °F 64% 29.98 in 10.0 mi ESE 8.1 mph - N/A   Partly Cloudy
10:53 AM 80.6 °F 81.8 °F 62.6 °F 54% 29.99 in 10.0 mi SSW 9.2 mph - N/A   Clear
11:53 AM 80.6 °F 81.8 °F 62.6 °F 54% 29.97 in 10.0 mi SSW 11.5 mph - N/A   Clear
1:53 PM 80.1 °F 81.5 °F 63.0 °F 56% 29.93 in 10.0 mi SW 10.4 mph - N/A   Mostly Cloudy
2:53 PM 79.0 °F - 63.0 °F 58% 29.93 in 10.0 mi SW 8.1 mph - N/A   Overcast
3:53 PM 79.0 °F - 63.0 °F 58% 29.93 in 10.0 mi SW 8.1 mph - N/A   Overcast
4:53 PM 78.1 °F - 63.0 °F 60% 29.95 in 10.0 mi SW 6.9 mph - N/A   Overcast
5:53 PM 78.1 °F - 63.0 °F 60% 29.96 in 10.0 mi WSW 5.8 mph - N/A   Overcast
6:53 PM 77.0 °F - 62.1 °F 60% 29.98 in 10.0 mi Calm Calm - N/A   Overcast
7:53 PM 77.0 °F - 63.0 °F 62% 29.99 in 10.0 mi West 4.6 mph - N/A   Overcast
8:53 PM 77.0 °F - 62.1 °F 60% 30.01 in 10.0 mi Calm Calm - N/A   Overcast
9:53 PM 75.9 °F - 63.0 °F 64% 30.01 in 10.0 mi Calm Calm - N/A   Overcast
10:53 PM 75.0 °F - 63.0 °F 66% 30.01 in 10.0 mi Calm Calm - N/A   Partly Cloudy
11:53 PM 73.0 °F - 63.0 °F 71% 30.01 in 10.0 mi ENE 4.6 mph - N/A   Clear